Pagrindinis puslapis
METAR-TAF:

METAR-TAF

Oro uostai :

Rio Kuartas, Argentina

platuma: 33-07S, ilguma: 064-14W, Aukštis: 420 m

Dabartinis oras

Ataskaita buvo paskelbta 10 minutes, ne 21:00 UTC
Vėjas 7 kt iš Pietų
Temperatūra 25°C
Drėgmė 18%
Slėgis 1014 hPa
Matomumas 10 km arba daugiau
nėra debesų žemiau 1500 m ir nėra kamuolinių lietaus debesų

METAR: SAOC 122100Z 18007KT CAVOK 25/M01 Q1014

Laikas: 18:10 (21:10 UTC)


TAF: trūkstamas

Orai ataskaitas ir orų prognozės (METAR, TAF).

turimą stotys yra geltonos ir raudonos taškus žemėlapyje.

Perkelti pele per norėdami pamatyti stoties vardą.

Tada spustelėkite, norėdami matyti oro stebėjimo ir prognozės.

Norėdami pakeisti žemėlapį: spustelėkite ant žalios mygtukų su juodo kryžiaus žemyn,; žalią mygtuką su brūkšneliu, jei norite nutolinti; arba žalių rodyklių gretimoms žemėlapius.


METAR-TAF: